Location: ???????
(55.4362°N, 38.1183°E)
Time: 08:02:25
(UTC+00:00)

Cosmos 2278 Rocket - Pass Details

Date: 23 October 2021
Orbit: 841 x 845 km, 71.0° (Epoch: 04 December)

Event Time Altitude Azimuth Distance (km) Brightness Sun altitude
Rises 17:59:26 0° 325° (NW) 3,418 6.3 -32.5°
Reaches altitude 10° 18:01:54 10° 322° (NW) 2,479 5.4 -32.8°
Enters shadow 18:06:13 50° 298° (WNW) 1,077 2.9 -33.3°
